Location: Irma
(52.9170°N, 111.2330°W)
Time: 19:56:20
(UTC-06:00)

Amateur Radio Satellites - All Passes

Search period start: 25 September 2016 19:26
Search period end: 26 September 2016 19:26
Location: Irma, 52.9170°N, 111.2330°W

Satellite Date Start Highest point End Downlink Frequencies (MHz)
Time Altitude Azimuth
RS-15 25 Sep 19:26:48 19:34:18 20° 95° (E) 19:41:59 29.354- 29.394
CUSAT 1 25 Sep 19:31:41 19:37:31 37° 86° (E) 19:44:22 437.405
MOZHAYETS 4 25 Sep 19:38:19 19:39:42 11° 311° (NW) 19:41:06
CUTE 1.7 + AOD 2 25 Sep 19:42:12 19:46:12 41° 68° (ENE) 19:50:14 437.475
LilacSat-2 25 Sep 19:42:50 19:45:45 21° 268° (W) 19:48:41 437.200
CANX-2 25 Sep 19:42:50 19:46:54 47° 69° (ENE) 19:51:02 2200.000
SEEDS 25 Sep 19:48:33 19:52:24 35° 66° (ENE) 19:56:17 437.485
NOAA 15 25 Sep 19:49:46 19:54:03 24° 269° (W) 19:58:21 137.62
HO-68 25 Sep 19:49:51 19:56:59 73° 67° (ENE) 20:04:09 435.675
Cosmos 2499 25 Sep 19:50:41 19:57:35 42° 67° (ENE) 20:04:55 435.465 / 435.565
BRITE-PL 25 Sep 19:50:59 19:54:24 16° 276° (W) 19:57:47 437.365/2234.400
GOMX 1 25 Sep 19:51:50 19:56:15 25° 269° (W) 20:00:32 467.674
Cubesat XI-IV 25 Sep 19:56:40 20:01:04 26° 268° (W) 20:05:30 437.490
CUTE-I 25 Sep 19:57:44 20:02:04 25° 269° (W) 20:06:26 437.470
Cosmos 2491 25 Sep 19:58:10 20:01:48 13° 328° (NNW) 20:05:27 435.465 / 435.565
CUBEBUG 2 25 Sep 20:06:42 20:10:23 31° 65° (ENE) 20:14:04 437.445
GONETS M04 25 Sep 20:15:42 20:24:32 65° 73° (ENE) 20:33:14
NOAA 18 25 Sep 20:17:58 20:22:06 22° 270° (W) 20:26:15 137.9125
CINEMA 3 25 Sep 20:18:20 20:22:48 71° 256° (WSW) 20:27:07 145.822/145.860
AAUSAT CUBESAT 2 25 Sep 20:18:24 20:22:18 39° 67° (ENE) 20:26:13 437.432
FUNcube-1 25 Sep 20:25:09 20:28:18 21° 60° (ENE) 20:31:28 145.935
DOVE 4 25 Sep 20:26:23 20:30:22 24° 269° (W) 20:34:13 437.250
DELFI C3 25 Sep 20:27:39 20:29:03 12° 53° (NE) 20:30:27 145.870
UWE-3 25 Sep 20:29:59 20:33:45 35° 66° (ENE) 20:37:33 435.000/436.395/437.385
DANDE 25 Sep 20:38:31 20:43:32 43° 89° (E) 20:50:03 436.750
CUBESAT XI-V 25 Sep 20:50:32 20:52:51 14° 309° (NW) 20:55:10 437.345
STRAND 1 25 Sep 20:50:55 20:56:04 65° 103° (ESE) 21:01:11 437.568
SO-50 25 Sep 20:54:10 20:57:41 20° 356° (N) 21:01:09 436.795
COMPASS 1 25 Sep 20:59:52 21:04:02 70° 257° (WSW) 21:08:16 437.405
ZACube-1 25 Sep 21:04:43 21:08:42 49° 69° (ENE) 21:12:44 437.345
Oscar 11 25 Sep 21:07:15 21:11:27 52° 69° (ENE) 21:15:40 145.826/435.025
CUSAT 1 25 Sep 21:12:45 21:19:11 60° 291° (WNW) 21:26:55 437.405
CUTE 1.7 + AOD 2 25 Sep 21:18:36 21:22:12 26° 267° (W) 21:25:50 437.475
CANX-2 25 Sep 21:19:35 21:23:01 23° 268° (W) 21:26:28 2200.000
SEEDS 25 Sep 21:24:24 21:28:09 31° 265° (W) 21:31:57 437.485
RS-15 25 Sep 21:32:40 21:44:08 64° 121° (ESE) 21:56:10 29.354- 29.394
AO-85 25 Sep 21:33:18 21:36:03 15° 111° (ESE) 21:38:41 145.980
HO-68 25 Sep 21:39:13 21:45:21 30° 268° (W) 21:51:32 435.675
PRISM 25 Sep 21:42:19 21:45:45 24° 94° (E) 21:49:09 437.425
CUBEBUG 2 25 Sep 21:43:09 21:47:00 34° 264° (W) 21:50:50 437.445
Cosmos 2499 25 Sep 21:43:51 21:50:57 53° 268° (W) 21:58:31 435.465 / 435.565
HUMSAT D 25 Sep 21:46:53 21:50:31 31° 64° (ENE) 21:54:10 437.325/437.525
ESTCUBE 1 25 Sep 21:51:07 21:52:18 11° 49° (NE) 21:53:30 437.505/2401.250
AAUSAT CUBESAT 2 25 Sep 21:54:19 21:57:54 27° 266° (W) 22:01:31 437.432
DELFI C3 25 Sep 21:59:10 22:03:10 72° 72° (ENE) 22:07:13 145.870
FUNcube-1 25 Sep 22:00:14 22:04:16 53° 260° (W) 22:08:21 145.935
UWE-3 25 Sep 22:06:37 22:10:17 30° 265° (W) 22:13:59 435.000/436.395/437.385
CUBEBUG 1 25 Sep 22:11:28 22:12:28 11° 50° (NE) 22:13:29 437.445
GONETS M04 25 Sep 22:13:04 22:20:56 38° 277° (W) 22:28:43
DANDE 25 Sep 22:21:06 22:26:21 43° 297° (WNW) 22:33:09 436.750
TIGRISAT 25 Sep 22:22:42 22:23:41 11° 85° (E) 22:24:40 435.000
STRAND 1 25 Sep 22:30:42 22:34:53 26° 303° (WNW) 22:39:04 437.568
SO-50 25 Sep 22:35:38 22:39:36 26° 20° (NNE) 22:43:28 436.795
50 SAT 25 Sep 22:40:16 22:40:59 10° 54° (NE) 22:41:43 437.505
ZACube-1 25 Sep 22:42:05 22:45:18 21° 269° (W) 22:48:31 437.345
Oscar 11 25 Sep 22:44:31 22:47:53 22° 269° (W) 22:51:17 145.826/435.025
AISAT 25 Sep 22:50:52 22:54:00 19° 57° (ENE) 22:57:08 437.250
ISS 25 Sep 22:50:52 22:53:39 26° 151° (SSE) 22:56:26 145.825
AUBIESAT-1 25 Sep 22:51:49 22:54:28 18° 54° (NE) 22:57:02 437.475
CUSAT 1 25 Sep 22:58:11 23:03:05 19° 316° (NW) 23:08:27 437.405
UNISAT 6 25 Sep 23:00:27 23:04:05 25° 93° (E) 23:07:45 437.425
SPROUT 25 Sep 23:02:15 23:04:20 13° 54° (NE) 23:06:25 437.525
AO-85 25 Sep 23:10:44 23:15:50 70° 130° (SE) 23:20:33 145.980
UKube-1 25 Sep 23:11:03 23:13:37 16° 54° (NE) 23:16:13 .
PRISM 25 Sep 23:17:17 23:21:15 43° 293° (WNW) 23:25:10 437.425
HUMSAT D 25 Sep 23:22:24 23:26:07 33° 264° (W) 23:29:54 437.325/437.525
ESTCUBE 1 25 Sep 23:23:45 23:28:11 55° 69° (ENE) 23:32:39 437.505/2401.250
M-CUBED/EXP-1 PRIME 25 Sep 23:25:46 23:29:34 40° 62° (ENE) 23:33:08 437.505
VELOX 1 25 Sep 23:33:25 23:37:33 38° 65° (ENE) 23:41:42 145.980
DX 1 25 Sep 23:33:42 23:37:26 28° 61° (ENE) 23:41:10 434.975-435.025
ANTELSAT 25 Sep 23:35:36 23:39:52 50° 100° (E) 23:44:11 437.575/2403.000
DELFI C3 25 Sep 23:36:16 23:38:30 14° 272° (W) 23:40:46 145.870
Cosmos 2499 25 Sep 23:40:01 23:42:24 12° 291° (WNW) 23:44:48 435.465 / 435.565
CUBEBUG 1 25 Sep 23:43:31 23:47:52 56° 69° (ENE) 23:52:12 437.445
RS-15 25 Sep 23:45:07 23:56:59 63° 329° (NNW) 00:09:18 29.354- 29.394
TIGRISAT 25 Sep 23:56:47 00:01:09 75° 103° (ESE) 00:05:34 435.000
QB50P2 26 Sep 00:00:27 00:03:12 17° 89° (E) 00:05:56 145.880/145.840
Cosmos 2491 26 Sep 00:01:50 00:06:53 16° 39° (NE) 00:11:56 435.465 / 435.565
POLYITAN 1 26 Sep 00:02:41 00:05:26 17° 89° (E) 00:08:09 437.675
DANDE 26 Sep 00:08:28 00:11:33 14° 324° (NW) 00:14:56 436.750
50 SAT 26 Sep 00:10:12 00:13:50 75° 74° (ENE) 00:17:31 437.505
SO-50 26 Sep 00:16:07 00:20:47 73° 42° (NE) 00:25:20 436.795
AUBIESAT-1 26 Sep 00:24:38 00:28:39 67° 251° (WSW) 00:32:23 437.475
AISAT 26 Sep 00:25:33 00:30:00 73° 256° (WSW) 00:34:29 437.250
ISS 26 Sep 00:26:34 00:29:48 63° 171° (S) 00:33:04 145.825
TISAT 1 26 Sep 00:29:42 00:32:48 20° 59° (ENE) 00:35:55 437.305
SPROUT 26 Sep 00:35:20 00:39:36 79° 73° (ENE) 00:43:53 437.525
JAS-2 26 Sep 00:36:34 00:43:50 39° 92° (E) 00:50:56 435.910
UNISAT 6 26 Sep 00:36:51 00:41:01 46° 292° (WNW) 00:45:16 437.425
QB50P1 26 Sep 00:42:50 00:46:46 37° 97° (E) 00:50:42 145.935-145.965
DUCHIFAT 1 26 Sep 00:43:20 00:47:10 33° 96° (E) 00:50:59 145.980
UKube-1 26 Sep 00:44:44 00:49:05 90° 181° (S) 00:53:27 .
AO-85 26 Sep 00:52:08 00:56:38 34° 330° (NNW) 01:00:52 145.980
BUGSAT 1 26 Sep 00:55:40 00:58:42 20° 92° (E) 01:01:43 437.445
POPSAT HIP 1 26 Sep 00:56:03 01:00:09 49° 100° (E) 01:04:14 437.405
M-CUBED/EXP-1 PRIME 26 Sep 01:00:44 01:04:13 26° 258° (WSW) 01:07:28 437.505
ESTCUBE 1 26 Sep 01:01:43 01:05:18 23° 268° (W) 01:08:56 437.505/2401.250
DX 1 26 Sep 01:09:16 01:13:28 44° 261° (W) 01:17:41 434.975-435.025
VELOX 1 26 Sep 01:10:06 01:14:05 31° 264° (W) 01:18:06 145.980
ANTELSAT 26 Sep 01:12:49 01:16:22 25° 299° (WNW) 01:19:57 437.575/2403.000
NANOSAT C BR1 26 Sep 01:13:57 01:18:10 70° 104° (ESE) 01:22:21 145.865
ITUPSAT 1 26 Sep 01:18:03 01:21:13 18° 54° (NE) 01:24:24 437.325
CUBEBUG 1 26 Sep 01:21:05 01:24:29 21° 269° (W) 01:27:54 437.445
SWISSCUBE 26 Sep 01:31:35 01:35:22 24° 58° (ENE) 01:39:11 437.505
TIGRISAT 26 Sep 01:34:26 01:37:23 18° 303° (WNW) 01:40:22 435.000
QB50P2 26 Sep 01:35:15 01:39:28 67° 288° (WNW) 01:43:39 145.880/145.840
POLYITAN 1 26 Sep 01:37:29 01:41:41 67° 288° (WNW) 01:45:53 437.675
BEESAT 26 Sep 01:44:33 01:48:33 27° 60° (ENE) 01:52:34 436.000
50 SAT 26 Sep 01:46:24 01:47:51 12° 273° (W) 01:49:19 437.505
SO-50 26 Sep 01:57:16 02:00:50 22° 244° (WSW) 02:04:20 436.795
Cosmos 2491 26 Sep 01:57:59 02:06:33 49° 67° (ENE) 02:15:01 435.465 / 435.565
RS-15 26 Sep 02:00:23 02:12:05 48° 2° (N) 02:23:59 29.354- 29.394
ISS 26 Sep 02:02:56 02:06:12 63° 190° (S) 02:09:28 145.825
TISAT 1 26 Sep 02:03:58 02:08:07 60° 258° (WSW) 02:12:16 437.305
AISAT 26 Sep 02:06:10 02:07:17 11° 276° (W) 02:08:25 437.250
BEESAT 2 26 Sep 02:07:59 02:09:55 13° 112° (ESE) 02:11:52 435.950
SPROUT 26 Sep 02:13:41 02:16:06 15° 273° (W) 02:18:30 437.525
Oscar 19 26 Sep 02:15:16 02:19:48 30° 94° (E) 02:24:18 437.125/150
QB50P1 26 Sep 02:18:49 02:22:29 30° 296° (WNW) 02:26:09 145.935-145.965
DUCHIFAT 1 26 Sep 02:19:06 02:22:51 32° 296° (WNW) 02:26:35 145.980
JAS-2 26 Sep 02:21:28 02:29:13 65° 293° (WNW) 02:36:52 435.910
UKube-1 26 Sep 02:23:45 02:25:47 13° 273° (W) 02:27:50 .
BUGSAT 1 26 Sep 02:30:28 02:34:22 50° 291° (WNW) 02:38:15 437.445
POPSAT HIP 1 26 Sep 02:32:20 02:35:43 24° 299° (WNW) 02:39:05 437.405
AO-85 26 Sep 02:34:57 02:38:19 19° 353° (N) 02:41:31 145.980
KKS-1 26 Sep 02:36:55 02:38:56 13° 51° (NE) 02:40:58 437.445
NANOSAT C BR1 26 Sep 02:50:36 02:53:27 18° 302° (WNW) 02:56:19 145.865
BEESAT 3 26 Sep 02:52:15 02:56:04 54° 127° (SE) 02:59:57 437.485
ITUPSAT 1 26 Sep 02:53:39 02:58:26 89° 251° (WSW) 03:03:16 437.325
Gurwin Techsat 1B 26 Sep 02:55:22 03:00:12 34° 95° (E) 03:05:00 435.225
ITAMSAT 1 26 Sep 03:04:52 03:07:26 14° 85° (E) 03:09:58 435.822/435.867
YUBILEINY 26 Sep 03:06:45 03:14:34 38° 83° (E) 03:22:21 435.215
SWISSCUBE 26 Sep 03:08:06 03:12:49 62° 258° (WSW) 03:17:35 437.505
QB50P2 26 Sep 03:13:01 03:14:30 12° 308° (NW) 03:15:59 145.880/145.840
POLYITAN 1 26 Sep 03:15:16 03:16:44 12° 308° (NW) 03:18:12 437.675
STARS 26 Sep 03:16:00 03:18:29 15° 53° (NE) 03:20:57 437.465
BEESAT 26 Sep 03:21:27 03:26:06 52° 259° (W) 03:30:48 436.000
Cosmos 2504 26 Sep 03:28:51 03:33:26 18° 75° (ENE) 03:37:58 435.465 / 435.565
MOZHAYETS 4 26 Sep 03:29:39 03:33:58 43° 67° (ENE) 03:38:20
ISS 26 Sep 03:39:34 03:42:21 25° 209° (SSW) 03:45:08 145.825
BEESAT 2 26 Sep 03:43:08 03:47:06 83° 132° (SE) 03:51:07 435.950
Oscar 19 26 Sep 03:54:22 03:59:23 50° 293° (WNW) 04:04:19 437.125/150
Cosmos 2491 26 Sep 03:55:05 04:03:35 53° 271° (W) 04:11:59 435.465 / 435.565
AO-7 26 Sep 04:02:57 04:09:45 27° 90° (E) 04:16:31 29.400- 29.500
JAS-2 26 Sep 04:07:21 04:12:56 22° 315° (NW) 04:18:32 435.910
KKS-1 26 Sep 04:10:19 04:14:45 69° 71° (ENE) 04:19:11 437.445
AIST 2 26 Sep 04:13:01 04:14:06 11° 110° (ESE) 04:15:11 435.215
RS-15 26 Sep 04:14:45 04:27:05 67° 34° (NNE) 04:39:21 29.354- 29.394
AO-85 26 Sep 04:16:37 04:20:13 23° 18° (NNE) 04:23:37 145.980
CUSAT 1 26 Sep 04:16:54 04:21:35 16° 40° (NE) 04:26:08 437.405
BEESAT 3 26 Sep 04:30:24 04:33:57 31° 328° (NNW) 04:37:32 437.485
ITUPSAT 1 26 Sep 04:34:21 04:36:59 15° 273° (W) 04:39:40 437.325
Gurwin Techsat 1B 26 Sep 04:35:14 04:40:19 47° 295° (WNW) 04:45:23 435.225
ITAMSAT 1 26 Sep 04:42:34 04:47:49 75° 106° (ESE) 04:53:02 435.822/435.867
CUBESAT XI-V 26 Sep 04:43:42 04:48:00 36° 65° (ENE) 04:52:20 437.345
PCSat 26 Sep 04:48:40 04:52:05 17° 106° (ESE) 04:55:31 145.827
STARS 26 Sep 04:49:48 04:54:12 84° 73° (ENE) 04:58:37 437.465
YUBILEINY 26 Sep 05:02:13 05:10:56 65° 287° (WNW) 05:19:41 435.215
MOZHAYETS 4 26 Sep 05:07:18 05:11:17 29° 266° (W) 05:15:20
HORYU 2 26 Sep 05:17:37 05:19:08 11° 85° (E) 05:20:39 437.375
Cosmos 2504 26 Sep 05:18:18 05:25:39 79° 98° (E) 05:32:51 435.465 / 435.565
BEESAT 2 26 Sep 05:22:02 05:25:23 25° 333° (NNW) 05:28:46 435.950
DANDE 26 Sep 05:26:20 05:32:14 21° 48° (NE) 05:38:18 436.750
Oscar 19 26 Sep 05:35:46 05:37:35 12° 315° (NW) 05:39:24 437.125/150
AIST 2 26 Sep 05:47:42 05:51:47 67° 129° (SE) 05:55:56 435.215
KKS-1 26 Sep 05:48:47 05:51:48 18° 271° (W) 05:54:49 437.445
Cosmos 2491 26 Sep 05:54:39 05:58:12 13° 295° (WNW) 06:01:46 435.465 / 435.565
AO-7 26 Sep 05:55:13 06:03:34 87° 296° (WNW) 06:11:53 29.400- 29.500
AO-85 26 Sep 05:57:06 06:01:28 64° 41° (NE) 06:05:30 145.980
CUSAT 1 26 Sep 05:58:12 06:05:54 46° 64° (ENE) 06:12:50 437.405
BRITE-PL 26 Sep 06:09:15 06:13:16 23° 89° (E) 06:17:02 437.365/2234.400
BEESAT 3 26 Sep 06:10:15 06:12:43 16° 351° (N) 06:15:12 437.485
AIST 1 26 Sep 06:11:30 06:15:47 54° 96° (E) 06:20:05
GOMX 1 26 Sep 06:11:38 06:12:08 10° 81° (E) 06:12:38 467.674
Gurwin Techsat 1B 26 Sep 06:17:25 06:19:05 11° 316° (NW) 06:20:46 435.225
NOAA 15 26 Sep 06:18:45 06:21:48 15° 86° (E) 06:24:51 137.62
CUBESAT XI-V 26 Sep 06:21:03 06:25:23 36° 264° (W) 06:29:47 437.345
ITAMSAT 1 26 Sep 06:22:47 06:26:48 23° 305° (NW) 06:30:50 435.822/435.867
Cubesat XI-IV 26 Sep 06:27:32 06:30:35 15° 85° (E) 06:33:38 437.490
RS-15 26 Sep 06:27:45 06:39:44 60° 241° (WSW) 06:51:31 29.354- 29.394
CUTE-I 26 Sep 06:28:17 06:31:26 16° 86° (E) 06:34:34 437.470
STARS 26 Sep 06:28:48 06:31:11 14° 273° (W) 06:33:33 437.465
PCSat 26 Sep 06:29:16 06:34:42 81° 127° (SE) 06:40:09 145.827
STRAND 1 26 Sep 06:34:43 06:39:10 31° 60° (ENE) 06:43:38 437.568
NOAA 18 26 Sep 06:51:58 06:55:50 19° 89° (E) 06:59:41 137.9125
HORYU 2 26 Sep 06:51:59 06:56:27 78° 104° (ESE) 07:00:55 437.375
BEESAT 2 26 Sep 07:02:04 07:04:27 15° 357° (N) 07:06:52 435.950
YUBILEINY 26 Sep 07:03:38 07:09:50 21° 313° (NW) 07:16:03 435.215
DANDE 26 Sep 07:08:35 07:16:43 62° 71° (ENE) 07:24:53 436.750
LilacSat-2 26 Sep 07:09:10 07:12:30 28° 95° (E) 07:15:50 437.200
Cosmos 2504 26 Sep 07:13:52 07:19:54 27° 301° (WNW) 07:25:52 435.465 / 435.565
AIST 2 26 Sep 07:26:56 07:30:36 29° 331° (NNW) 07:34:19 435.215
GONETS M04 26 Sep 07:33:12 07:37:42 15° 67° (ENE) 07:42:13
AO-85 26 Sep 07:38:12 07:41:29 22° 244° (WSW) 07:44:35 145.980
CUSAT 1 26 Sep 07:40:24 07:48:09 54° 268° (W) 07:55:01 437.405
GOMX 1 26 Sep 07:46:38 07:51:15 72° 102° (ESE) 07:55:34 467.674
BRITE-PL 26 Sep 07:47:12 07:52:13 58° 291° (WNW) 07:56:49 437.365/2234.400
AO-7 26 Sep 07:48:34 07:55:29 31° 316° (NW) 08:02:22 29.400- 29.500
BEESAT 3 26 Sep 07:49:02 07:51:47 18° 15° (NNE) 07:54:32 437.485
AIST 1 26 Sep 07:50:19 07:53:44 22° 296° (WNW) 07:57:09
O/OREOS (USA 219) 26 Sep 07:52:04 07:55:37 23° 103° (ESE) 07:59:11 437.305
NOAA 15 26 Sep 07:57:05 08:02:26 82° 104° (ESE) 08:07:45 137.62
Cubesat XI-IV 26 Sep 08:06:09 08:11:32 81° 106° (ESE) 08:16:55 437.490
CUTE-I 26 Sep 08:06:57 08:12:20 83° 106° (ESE) 08:17:43 437.470
CINEMA 3 26 Sep 08:07:33 08:10:15 17° 89° (E) 08:12:57 145.822/145.860
STRAND 1 26 Sep 08:13:12 08:18:09 50° 260° (W) 08:23:10 437.568
PCSat 26 Sep 08:13:50 08:18:40 31° 329° (NNW) 08:23:32 145.827
DOVE 4 26 Sep 08:17:56 08:22:14 65° 101° (ESE) 08:26:21 437.250
HORYU 2 26 Sep 08:29:30 08:32:31 18° 304° (NW) 08:35:33 437.375
NOAA 18 26 Sep 08:31:41 08:37:11 83° 289° (WNW) 08:42:40 137.9125
Cosmos 2499 26 Sep 08:36:48 08:42:16 25° 80° (E) 08:47:42 435.465 / 435.565
PRISM 26 Sep 08:37:01 08:40:56 40° 66° (ENE) 08:44:52 437.425
COMPASS 1 26 Sep 08:37:58 08:40:04 13° 86° (E) 08:42:10 437.405
BEESAT 2 26 Sep 08:40:33 08:43:38 21° 21° (NNE) 08:46:43 435.950
RS-15 26 Sep 08:42:12 08:49:25 18° 267° (W) 08:56:34 29.354- 29.394
LilacSat-2 26 Sep 08:43:23 08:46:50 33° 294° (WNW) 08:50:18 437.200
DANDE 26 Sep 08:51:44 08:59:20 43° 271° (W) 09:06:56 436.750
CUTE 1.7 + AOD 2 26 Sep 08:56:33 09:00:33 36° 96° (E) 09:04:32 437.475
CANX-2 26 Sep 08:57:21 09:01:28 41° 98° (E) 09:05:33 2200.000
HO-68 26 Sep 08:58:29 09:05:17 43° 98° (E) 09:12:02 435.675
SEEDS 26 Sep 09:01:41 09:05:29 30° 94° (E) 09:09:14 437.485
ANTELSAT 26 Sep 09:05:57 09:08:22 15° 55° (NE) 09:10:47 437.575/2403.000
AIST 2 26 Sep 09:07:36 09:10:17 16° 354° (N) 09:13:01 435.215
JAS-2 26 Sep 09:15:54 09:18:24 12° 30° (NNE) 09:20:58 435.910
GONETS M04 26 Sep 09:23:58 09:32:34 59° 91° (E) 09:41:11
CUSAT 1 26 Sep 09:24:39 09:28:21 14° 290° (WNW) 09:31:55 437.405
GOMX 1 26 Sep 09:25:36 09:28:50 19° 304° (NW) 09:31:56 467.674
TIGRISAT 26 Sep 09:26:08 09:29:16 20° 59° (ENE) 09:32:25 435.000
BEESAT 3 26 Sep 09:26:30 09:30:21 45° 38° (NE) 09:34:10 437.485
CUBEBUG 2 26 Sep 09:27:10 09:30:55 30° 95° (E) 09:34:43 437.445
BRITE-PL 26 Sep 09:27:29 09:29:36 13° 313° (NW) 09:31:40 437.365/2234.400
AAUSAT CUBESAT 2 26 Sep 09:29:47 09:33:36 32° 95° (E) 09:37:22 437.432
O/OREOS (USA 219) 26 Sep 09:30:08 09:34:39 60° 304° (WNW) 09:39:14 437.305
NOAA 15 26 Sep 09:37:41 09:41:39 22° 306° (NW) 09:45:38 137.62
AO-7 26 Sep 09:41:57 09:45:44 14° 342° (NNW) 09:49:31 29.400- 29.500
FUNcube-1 26 Sep 09:42:18 09:45:25 19° 90° (E) 09:48:34 145.935
CINEMA 3 26 Sep 09:43:44 09:47:51 64° 289° (WNW) 09:52:00 145.822/145.860
Cubesat XI-IV 26 Sep 09:47:02 09:51:04 22° 306° (NW) 09:55:06 437.490
CUTE-I 26 Sep 09:47:50 09:51:50 22° 306° (NW) 09:55:49 437.470
UWE-3 26 Sep 09:49:10 09:53:04 33° 96° (E) 09:57:01 435.000/436.395/437.385
DOVE 4 26 Sep 09:56:29 09:59:31 19° 303° (WNW) 10:02:28 437.250
PCSat 26 Sep 09:59:58 10:03:45 19° 355° (N) 10:07:32 145.827
UNISAT 6 26 Sep 10:04:59 10:09:02 44° 68° (ENE) 10:13:06 437.425
QB50P1 26 Sep 10:08:55 10:09:56 11° 51° (NE) 10:10:57 145.935-145.965
COMPASS 1 26 Sep 10:11:59 10:16:15 84° 282° (WNW) 10:20:28 437.405
PRISM 26 Sep 10:12:47 10:16:22 27° 265° (W) 10:19:58 437.425
NOAA 18 26 Sep 10:13:21 10:17:08 20° 309° (NW) 10:20:55 137.9125
BEESAT 2 26 Sep 10:18:09 10:22:10 65° 44° (NE) 10:26:09 435.950
POPSAT HIP 1 26 Sep 10:21:05 10:23:07 13° 54° (NE) 10:25:09 437.405
ZACube-1 26 Sep 10:22:39 10:26:46 46° 99° (E) 10:30:59 437.345
Oscar 11 26 Sep 10:24:14 10:28:28 46° 99° (E) 10:32:40 145.826/435.025
Cosmos 2499 26 Sep 10:27:29 10:34:36 79° 282° (WNW) 10:41:45 435.465 / 435.565
CUTE 1.7 + AOD 2 26 Sep 10:32:32 10:36:22 32° 295° (WNW) 10:40:10 437.475
CANX-2 26 Sep 10:33:30 10:37:11 28° 297° (WNW) 10:40:53 2200.000
SEEDS 26 Sep 10:37:18 10:41:15 37° 294° (WNW) 10:45:11 437.485
NANOSAT C BR1 26 Sep 10:37:47 10:40:34 17° 57° (ENE) 10:43:21 145.865
DANDE 26 Sep 10:37:59 10:40:10 11° 292° (WNW) 10:42:20 436.750
ANTELSAT 26 Sep 10:40:13 10:44:30 90° 259° (WSW) 10:48:48 437.575/2403.000
HO-68 26 Sep 10:46:18 10:53:11 52° 299° (WNW) 11:00:03 435.675
AIST 2 26 Sep 10:47:01 10:50:12 20° 18° (NNE) 10:53:23 435.215
JAS-2 26 Sep 10:55:16 11:01:14 34° 54° (NE) 11:07:44 435.910
QB50P2 26 Sep 10:58:28 11:02:02 28° 63° (ENE) 11:05:38 145.880/145.840
HUMSAT D 26 Sep 10:59:17 11:02:52 26° 93° (E) 11:06:27 437.325/437.525
POLYITAN 1 26 Sep 11:00:42 11:04:17 28° 63° (ENE) 11:07:51 437.675
TIGRISAT 26 Sep 11:01:24 11:05:37 61° 258° (WSW) 11:09:51 435.000
CUBEBUG 2 26 Sep 11:03:44 11:07:38 37° 293° (WNW) 11:11:35 437.445
BEESAT 3 26 Sep 11:04:20 11:07:56 32° 238° (WSW) 11:11:30 437.485
AAUSAT CUBESAT 2 26 Sep 11:05:16 11:09:06 34° 294° (WNW) 11:12:54 437.432
DELFI C3 26 Sep 11:05:21 11:09:19 51° 100° (E) 11:13:15 145.870
O/OREOS (USA 219) 26 Sep 11:12:17 11:15:03 16° 326° (NNW) 11:17:51 437.305
FUNcube-1 26 Sep 11:17:49 11:22:01 59° 289° (WNW) 11:26:19 145.935
GONETS M04 26 Sep 11:21:26 11:29:47 44° 295° (WNW) 11:38:11
CINEMA 3 26 Sep 11:23:15 11:24:14 11° 308° (NW) 11:25:13 145.822/145.860
UWE-3 26 Sep 11:25:42 11:29:33 34° 294° (WNW) 11:33:26 435.000/436.395/437.385
AO-7 26 Sep 11:32:15 11:35:07 12° 10° (N) 11:37:59 29.400- 29.500
DUCHIFAT 1 26 Sep 11:40:39 11:44:44 54° 70° (ENE) 11:48:50 145.980
QB50P1 26 Sep 11:40:45 11:44:53 61° 71° (ENE) 11:49:03 145.935-145.965
UNISAT 6 26 Sep 11:42:25 11:45:58 25° 267° (W) 11:49:31 437.425
PCSat 26 Sep 11:44:43 11:49:03 23° 21° (NNE) 11:53:22 145.827
COMPASS 1 26 Sep 11:48:56 11:51:09 14° 305° (NW) 11:53:22 437.405
BUGSAT 1 26 Sep 11:50:47 11:54:27 32° 65° (ENE) 11:58:06 437.445
POPSAT HIP 1 26 Sep 11:54:02 11:58:15 80° 73° (ENE) 12:02:28 437.405
BEESAT 2 26 Sep 11:56:32 11:59:38 22° 243° (WSW) 12:02:44 435.950
ZACube-1 26 Sep 11:59:21 12:02:53 26° 298° (WNW) 12:06:28 437.345
Oscar 11 26 Sep 12:00:46 12:04:25 26° 298° (WNW) 12:08:02 145.826/435.025
Oscar 19 26 Sep 12:01:11 12:04:29 17° 51° (NE) 12:07:47 437.125/150
AISAT 26 Sep 12:10:53 12:13:17 14° 87° (E) 12:15:39 437.250
NANOSAT C BR1 26 Sep 12:11:39 12:15:50 73° 257° (WSW) 12:20:03 145.865
ANTELSAT 26 Sep 12:20:04 12:21:54 12° 274° (W) 12:23:44 437.575/2403.000
Cosmos 2499 26 Sep 12:24:01 12:29:05 20° 307° (NW) 12:34:11 435.465 / 435.565
AIST 2 26 Sep 12:25:21 12:29:29 56° 40° (NE) 12:33:39 435.215
QB50P2 26 Sep 12:33:44 12:37:44 41° 262° (W) 12:41:44 145.880/145.840
HUMSAT D 26 Sep 12:34:38 12:38:39 43° 292° (WNW) 12:42:41 437.325/437.525
HO-68 26 Sep 12:35:08 12:39:27 17° 322° (NW) 12:43:46 435.675
POLYITAN 1 26 Sep 12:35:59 12:39:58 40° 262° (W) 12:43:57 437.675
JAS-2 26 Sep 12:39:07 12:45:42 72° 257° (WSW) 12:53:11 435.910
DELFI C3 26 Sep 12:40:47 12:43:52 21° 299° (WNW) 12:46:57 145.870
Gurwin Techsat 1B 26 Sep 12:44:41 12:48:28 20° 53° (NE) 12:52:15 435.225
ESTCUBE 1 26 Sep 12:46:42 12:51:10 51° 100° (E) 12:55:35 437.505/2401.250
DX 1 26 Sep 12:51:39 12:54:59 21° 92° (E) 12:58:16 434.975-435.025
VELOX 1 26 Sep 12:53:35 12:57:34 32° 96° (E) 13:01:30 145.980
FUNcube-1 26 Sep 12:56:31 12:57:28 11° 308° (NW) 12:58:24 145.935
CUBEBUG 1 26 Sep 13:02:10 13:06:24 47° 99° (E) 13:10:35 437.445
50 SAT 26 Sep 13:05:28 13:08:57 38° 98° (E) 13:12:23 437.505
YUBILEINY 26 Sep 13:08:06 13:15:22 28° 55° (NE) 13:22:36 435.215
Cosmos 2504 26 Sep 13:11:06 13:13:38 12° 41° (NE) 13:16:11 435.465 / 435.565
DUCHIFAT 1 26 Sep 13:17:39 13:20:45 20° 269° (W) 13:23:53 145.980
QB50P1 26 Sep 13:18:09 13:21:05 18° 270° (W) 13:24:00 145.935-145.965
AO-7 26 Sep 13:18:55 13:24:59 23° 37° (NE) 13:31:04 29.400- 29.500
GONETS M04 26 Sep 13:25:11 13:29:41 14° 324° (NW) 13:34:11
BUGSAT 1 26 Sep 13:26:08 13:29:50 32° 264° (W) 13:33:32 437.445
PCSat 26 Sep 13:28:09 13:33:32 59° 44° (NE) 13:38:54 145.827
AUBIESAT-1 26 Sep 13:32:01 13:34:52 26° 102° (ESE) 13:37:40 437.475
POPSAT HIP 1 26 Sep 13:32:21 13:34:36 14° 273° (W) 13:36:51 437.405
Oscar 19 26 Sep 13:37:51 13:43:03 78° 71° (ENE) 13:48:16 437.125/150
TISAT 1 26 Sep 13:42:55 13:45:10 14° 88° (E) 13:47:25 437.305
AISAT 26 Sep 13:45:56 13:50:22 84° 290° (WNW) 13:54:46 437.250
SPROUT 26 Sep 13:50:55 13:55:10 66° 102° (ESE) 13:59:24 437.525
UKube-1 26 Sep 14:01:40 14:06:00 71° 104° (ESE) 14:10:18 .
AIST 2 26 Sep 14:04:12 14:07:45 27° 241° (WSW) 14:11:18 435.215
M-CUBED/EXP-1 PRIME 26 Sep 14:07:40 14:11:02 81° 113° (ESE) 14:14:17 437.505
Gurwin Techsat 1B 26 Sep 14:22:27 14:27:46 90° 219° (SW) 14:33:09 435.225
ESTCUBE 1 26 Sep 14:23:58 14:27:44 26° 299° (WNW) 14:31:29 437.505/2401.250
DX 1 26 Sep 14:27:14 14:31:31 56° 291° (WNW) 14:35:45 434.975-435.025
ITAMSAT 1 26 Sep 14:27:54 14:32:39 38° 62° (ENE) 14:37:26 435.822/435.867
JAS-2 26 Sep 14:28:00 14:32:16 17° 281° (W) 14:36:49 435.910
VELOX 1 26 Sep 14:30:00 14:34:06 37° 295° (WNW) 14:38:08 145.980
CUBEBUG 1 26 Sep 14:38:52 14:42:29 26° 299° (WNW) 14:46:03 437.445
50 SAT 26 Sep 14:39:19 14:42:18 23° 297° (WNW) 14:45:16 437.505
ITUPSAT 1 26 Sep 14:49:06 14:51:59 16° 87° (E) 14:54:52 437.325
Cosmos 2504 26 Sep 15:02:31 15:09:25 43° 67° (ENE) 15:16:38 435.465 / 435.565
SWISSCUBE 26 Sep 15:02:31 15:06:16 22° 91° (E) 15:10:01 437.505
YUBILEINY 26 Sep 15:04:43 15:13:31 89° 92° (E) 15:22:14 435.215
AUBIESAT-1 26 Sep 15:06:27 15:09:23 28° 301° (WNW) 15:12:16 437.475
Cosmos 2491 26 Sep 15:07:11 15:15:15 43° 85° (E) 15:23:23 435.465 / 435.565
AO-7 26 Sep 15:08:12 15:16:21 63° 60° (ENE) 15:24:31 29.400- 29.500
PCSat 26 Sep 15:11:54 15:16:43 33° 246° (WSW) 15:21:31 145.827
BEESAT 26 Sep 15:15:31 15:19:32 26° 93° (E) 15:23:32 436.000
TISAT 1 26 Sep 15:17:11 15:21:22 78° 288° (WNW) 15:25:32 437.305
Oscar 19 26 Sep 15:19:15 15:22:58 20° 271° (W) 15:26:43 437.125/150
AISAT 26 Sep 15:23:42 15:26:12 15° 307° (NW) 15:28:41 437.250
SPROUT 26 Sep 15:27:40 15:30:43 19° 302° (WNW) 15:33:45 437.525
UKube-1 26 Sep 15:38:34 15:41:36 19° 303° (WNW) 15:44:38 .
M-CUBED/EXP-1 PRIME 26 Sep 15:43:39 15:45:04 12° 311° (NW) 15:46:29 437.505
BRITE-PL 26 Sep 15:50:04 15:52:37 13° 48° (NE) 15:55:07 437.365/2234.400
Gurwin Techsat 1B 26 Sep 16:05:07 16:08:30 17° 273° (W) 16:11:54 435.225
DX 1 26 Sep 16:05:53 16:06:49 11° 311° (NW) 16:07:44 434.975-435.025
ITAMSAT 1 26 Sep 16:07:16 16:12:07 41° 262° (W) 16:17:02 435.822/435.867
NOAA 15 26 Sep 16:09:10 16:10:29 11° 43° (NE) 16:11:48 137.62
AIST 1 26 Sep 16:12:22 16:16:06 27° 67° (ENE) 16:19:46
O/OREOS (USA 219) 26 Sep 16:15:51 16:19:41 25° 43° (NE) 16:23:29 437.305
SO-50 26 Sep 16:16:11 16:20:18 29° 119° (ESE) 16:24:23 436.795
Cubesat XI-IV 26 Sep 16:19:47 16:21:02 11° 43° (NE) 16:22:17 437.490
CUTE-I 26 Sep 16:20:18 16:21:40 11° 43° (NE) 16:23:03 437.470
HORYU 2 26 Sep 16:20:22 16:23:53 24° 59° (ENE) 16:27:26 437.375
ITUPSAT 1 26 Sep 16:25:40 16:30:30 87° 289° (WNW) 16:35:20 437.325
SWISSCUBE 26 Sep 16:39:43 16:44:28 61° 291° (WNW) 16:49:12 437.505
NOAA 18 26 Sep 16:46:30 16:49:33 15° 47° (NE) 16:52:37 137.9125
BEESAT 26 Sep 16:52:57 16:57:36 52° 293° (WNW) 17:02:16 436.000
TISAT 1 26 Sep 16:54:25 16:56:21 13° 307° (NW) 16:58:17 437.305
MOZHAYETS 4 26 Sep 16:55:14 16:59:42 43° 98° (E) 17:04:08
Cosmos 2504 26 Sep 16:55:58 17:02:58 51° 269° (W) 17:10:20 435.465 / 435.565
AO-7 26 Sep 17:01:49 17:09:33 41° 263° (W) 17:17:19 29.400- 29.500
YUBILEINY 26 Sep 17:02:31 17:09:13 26° 284° (WNW) 17:15:53 435.215
Cosmos 2491 26 Sep 17:03:14 17:11:53 58° 289° (WNW) 17:20:39 435.465 / 435.565
GOMX 1 26 Sep 17:22:51 17:27:16 27° 61° (ENE) 17:31:30 467.674
BRITE-PL 26 Sep 17:24:30 17:30:00 53° 68° (ENE) 17:35:22 437.365/2234.400
GONETS M04 26 Sep 17:30:28 17:34:45 14° 35° (NE) 17:39:01
KKS-1 26 Sep 17:31:33 17:35:57 59° 102° (ESE) 17:40:19 437.445
NOAA 15 26 Sep 17:44:01 17:49:01 44° 64° (ENE) 17:54:03 137.62
HO-68 26 Sep 17:48:57 17:53:42 19° 41° (NE) 17:58:26 435.675
AIST 1 26 Sep 17:49:48 17:53:50 39° 268° (W) 17:57:49
DOVE 4 26 Sep 17:52:26 17:56:13 23° 60° (ENE) 17:59:51 437.250
Cubesat XI-IV 26 Sep 17:54:51 17:59:52 44° 64° (ENE) 18:04:54 437.490
O/OREOS (USA 219) 26 Sep 17:54:56 17:59:32 68° 245° (WSW) 18:04:06 437.305
CUTE-I 26 Sep 17:55:29 18:00:29 44° 65° (ENE) 18:05:32 437.470
SO-50 26 Sep 17:55:45 18:00:32 64° 319° (NW) 18:05:16 436.795
HORYU 2 26 Sep 17:55:51 18:00:10 54° 259° (W) 18:04:32 437.375
LilacSat-2 26 Sep 17:56:48 18:00:13 33° 66° (ENE) 18:03:38 437.200
ITUPSAT 1 26 Sep 18:04:36 18:07:43 17° 307° (NW) 18:10:49 437.325
STARS 26 Sep 18:09:17 18:13:40 70° 103° (ESE) 18:18:01 437.465
CUBESAT XI-V 26 Sep 18:10:59 18:15:24 37° 96° (E) 18:19:45 437.345
Cosmos 2499 26 Sep 18:17:58 18:22:14 16° 47° (NE) 18:26:37 435.465 / 435.565
SWISSCUBE 26 Sep 18:19:14 18:21:23 13° 311° (NW) 18:23:30 437.505
CANX-2 26 Sep 18:23:34 18:24:47 11° 52° (NE) 18:26:00 2200.000
NOAA 18 26 Sep 18:23:52 18:29:16 63° 68° (ENE) 18:34:40 137.9125
MOZHAYETS 4 26 Sep 18:32:41 18:36:45 31° 297° (WNW) 18:40:48
BEESAT 26 Sep 18:32:57 18:34:24 11° 313° (NW) 18:35:51 436.000
Cosmos 2504 26 Sep 18:53:01 18:54:35 11° 292° (WNW) 18:56:10 435.465 / 435.565
RS-15 26 Sep 18:53:42 18:59:07 14° 90° (E) 19:04:36 29.354- 29.394
GOMX 1 26 Sep 18:59:45 19:05:05 60° 259° (W) 19:10:08 467.674
BRITE-PL 26 Sep 19:03:34 19:08:40 33° 267° (W) 19:13:41 437.365/2234.400
Cosmos 2491 26 Sep 19:05:16 19:11:07 19° 316° (NW) 19:17:01 435.465 / 435.565
CUSAT 1 26 Sep 19:06:35 19:12:10 30° 82° (E) 19:18:34 437.405
KKS-1 26 Sep 19:08:45 19:12:12 22° 301° (WNW) 19:15:37 437.445
CINEMA 3 26 Sep 19:14:30 19:18:26 32° 65° (ENE) 19:22:15 145.822/145.860
